Regional Weather Roundup
Issued by NWS State College, PA

Home | Current Version | Previous Version | Graphics & Text | Print | Product List | Glossary On
Versions: 1 2 3 4 5 6 7 8 9 10 11 12 13 14 15 16 17 18 19 20 21 22 23 24 25 26 27 28 29 30 31 32 33 34 35 36 37 38 39 40 41 42 43 44 45 46 47 48 49 50
000
ASUS41 KCTP 181403
RWRCTP

REGIONAL WEATHER ROUNDUP
NATIONAL WEATHER SERVICE STATE COLLEGE PA
1000 AM EDT FRI AUG 18 2017

Note: "fair" indicates few or no clouds below 12,000 feet with no
significant weather and/or obstructions to visibility.

* = STATION THAT DOES NOT REPORT PRECIPITATION /E.G. RAIN...SNOW...ETC/
    THUNDER OR FOG.

PAZ002>004-007>009-013>016-020>023-029>032-181500-
WESTERN PENNSYLVANIA

CITY           SKY/WX    TMP DP  RH WIND       PRES   REMARKS
ERIE           SUNNY     79  69  71 S16       29.78S
MEADVILLE      PTSUNNY   74  71  91 SW10      29.84S
FRANKLIN*      PTSUNNY   73  68  83 SW7       29.86R
NEW CASTLE     CLOUDY    76  71  85 VRB5      29.85R
BEAVER COUNTY  CLOUDY    75  70  83 SW7       29.86R
BUTLER*        CLOUDY    73  72  96 S6        29.86S
PITTSBURGH INT CLOUDY    74  73  97 SW5       29.85S
PITTSBURGH     LGT RAIN  71  69  93 W5        29.86S
INDIANA*       CLOUDY    72  72 100 SW6       29.90S FOG
LATROBE        LGT RAIN  73  73 100 SW7       29.87F FOG
WASHINGTON CO* PTSUNNY   72  70  94 CALM      29.87R
$$

PAZ004>006-010>012-017>019-024>028-033>037-041-042-045-046-049>053-181500-
CENTRAL PENNSYLVANIA

CITY           SKY/WX    TMP DP  RH WIND       PRES   REMARKS
BRADFORD       CLOUDY    73  69  87 W8        29.87S
DUBOIS         CLOUDY    72  68  87 SW7       29.88R
CLEARFIELD     CLOUDY    72  72 100 SW6       29.87F
JOHNSTOWN      LGT RAIN  71  69  93 S8        29.91F
ALTOONA        RAIN      72  72 100 SW7       29.90S FOG
STATE COLLEGE  LGT RAIN  73  72  94 S6        29.86F
WILLIAMSPORT   PTSUNNY   79  75  87 CALM      29.82S
SELINSGROVE    CLOUDY    80  76  87 VRB5      29.84F
FT INDIANTOWN  CLOUDY    77  77 100 SW3       29.86S FOG
CAPITAL CITY   PTSUNNY   82  74  76 SW5       29.85S
HARRISBURG     MOSUNNY   82  75  79 SW8       29.85R
YORK           MOSUNNY   81  76  84 SW5       29.86S
$$

PAZ038>040-043-044-047-048-054-055-060>062-067>071-181500-
EASTERN PENNSYLVANIA

CITY           SKY/WX    TMP DP  RH WIND       PRES   REMARKS
SCRANTON       CLOUDY    77  73  87 SW6       29.86F
MOUNT POCONO   CLOUDY    70  70 100 SW6       29.92S FOG
ALLENTOWN      CLOUDY    77  72  84 S6        29.87S
QUAKERTOWN*    CLOUDY    75  73  94 SW5       29.89S
READING        CLOUDY    79  75  87 SE3       29.86S FOG
LANCASTER      CLOUDY    79  76  90 S6        29.87S
COATESVILLE    CLOUDY    75  75 100 CALM      29.90S FOG
POTTSTOWN      CLOUDY    76  74  93 VRB5      29.89S
BLUE BELL      CLOUDY    73  73 100 CALM      29.90S
DOYLESTOWN     CLOUDY    75  74  96 S6        29.88S
WILLOW GROVE   NOT AVBL
NORTH PHILA    CLOUDY    79  75  87 SW5       29.89S FOG
PHILADELPHIA   CLOUDY    79  75  87 S8        29.88R
$$




USA.gov is the U.S. government's official web portal to all federal, state and local government web resources and services.